shijiazhuang , China , ASIA

  • Saturday
    February 23

    Sunny  Cloudy

    54 °F  32 °F

    South  North

        

  • Sunday
    February 24

    Cloudy  Cloudy

    52 °F  34 °F

    South  North

        

  • Monday
    February 25

    Cloudy  Cloudy

    48 °F  32 °F

    North  North

        

  • Tuesday
    February 26

    Cloudy  Cloudy

    46 °F  34 °F

    South  North

        

  • Wednesday
    February 27

    Sunny  Sunny

    50 °F  36 °F

    South  North

        

  • Thursday
    February 28

    Cloudy  Cloudy

    54 °F  36 °F

    South  North

        

  • Friday
    March 1

    Overcast  Moderate rain

    46 °F  34 °F

    North  No wind

        

Date   Weather Temperature Humidity Total_rain Visibility Wind
11:00 Sunny 47°F 39.8% 0mm 999.9km Southeast  1.0m/s
14:00 Sunny 53°F 38.4% 0mm 999.9km Southeast  1.7m/s
17:00 Sunny 49°F 44.4% 0mm 999.9km Southeast  1.5m/s
20:00 Sunny 43°F 49.1% 0mm 999.9km Southwest  1.0m/s
23:00 Cloudy 40°F 57.2% 0mm 999.9km Southwest  0.2m/s
02:00 Cloudy 33°F 62.6% 0mm 999.9km Southwest  0.7m/s
05:00 Cloudy 32°F 65.8% 0mm 999.9km Northwest  0.6m/s
08:00 Cloudy 33°F 60.9% 0mm 999.9km Northwest  0.9m/s
11:00 Cloudy 45°F 45.3% 0mm 999.9km Northeast  0.9m/s
14:00 Cloudy 51°F 53% 0mm 999.9km Northeast  1.7m/s
17:00 Cloudy 51°F 63% 0mm 999.9km Northeast  1.7m/s
20:00 Cloudy 44°F 73.4% 0mm 999.9km Northeast  0.8m/s
23:00 Cloudy 39°F 75% 0mm 999.9km Northwest  0.6m/s
02:00 Cloudy 37°F 76.3% 0mm 999.9km Northwest  0.9m/s
05:00 Cloudy 35°F 78.6% 0mm 999.9km Northwest  0.9m/s
08:00 Cloudy 34°F 74.3% 0mm 999.9km Northeast  0.6m/s
11:00 Cloudy 46°F 53.6% 0mm 999.9km Northeast  0.6m/s
14:00 Cloudy 48°F 60% 0mm 999.9km Northeast  1.5m/s
17:00 Cloudy 45°F 60.5% 0mm 999.9km Northeast  1.3m/s
20:00 Cloudy 42°F 65.2% 0mm 999.9km Northeast  1.0m/s
23:00 Cloudy 36°F 69.9% 0mm 999.9km Northwest  0.4m/s
02:00 Cloudy 32°F 71.4% 0mm 999.9km Northwest  0.5m/s
05:00 Cloudy 32°F 73% 0mm 999.9km Northeast  0.3m/s
08:00 Cloudy 32°F 71.7% 0mm 999.9km Northeast  0.2m/s
11:00 Cloudy 42°F 50.7% 0mm 999.9km Southeast  1.5m/s
14:00 Cloudy 46°F 57.8% 0mm 999.9km Southeast  1.5m/s
17:00 Cloudy 43°F 61.6% 0mm 999.9km Southeast  1.4m/s
20:00 Cloudy 41°F 71.5% 0mm 999.9km Northeast  0.9m/s
23:00 Cloudy 38°F 74% 0mm 999.9km Northwest  0.2m/s
02:00 Cloudy 35°F 73.9% 0mm 999.9km Northwest  0.4m/s
05:00 Cloudy 34°F 75.1% 0mm 999.9km Northwest  1.2m/s
08:00 Cloudy 35°F 56.9% 0mm 999.9km Northwest  0.8m/s
11:00 Sunny 42°F 66.2% 0mm 999.9km Northeast  0.9m/s
14:00 Sunny 50°F 73% 0mm 999.9km Northeast  1.2m/s
17:00 Sunny 47°F 73.7% 0mm 999.9km Southeast  1.0m/s
20:00 Sunny 44°F 74.5% 0mm 999.9km Northeast  1.0m/s
23:00 Sunny 38°F 73.8% 0mm 999.9km Southwest  0.8m/s
02:00 Sunny 36°F 82.7% 0mm 999.9km Northwest  0.5m/s
05:00 Sunny 36°F 76.4% 0mm 999.9km Southwest  0.8m/s
08:00 Sunny 37°F 68.9% 0mm 999.9km Northwest  0.4m/s
11:00 Cloudy 48°F 56.1% 0mm 999.9km Southeast  1.8m/s
14:00 Cloudy 53°F 56.2% 0mm 999.9km Southeast  1.5m/s
17:00 Cloudy 46°F 56.4% 0mm 999.9km Southeast  1.5m/s
20:00 Cloudy 45°F 58.7% 0mm 999.9km Northeast  1.0m/s
23:00 Cloudy 42°F 60.9% 0mm 999.9km Southwest  0.6m/s
02:00 Cloudy 38°F 72.2% 0mm 999.9km Northeast  1.0m/s
05:00 Cloudy 36°F 67% 0mm 999.9km Southeast  1.0m/s
08:00 Cloudy 37°F 56.6% 0mm 999.9km Northeast  1.4m/s
11:00 Overcast 43°F 58.1% 0mm 999.9km Northeast  1.3m/s
14:00 Overcast 45°F 58.4% 0mm 999.9km Northeast  1.7m/s
17:00 Overcast 46°F 58.7% 0mm 999.9km Southeast  1.4m/s
20:00 Overcast 43°F 62.1% 0mm 999.9km Northwest  1.2m/s
23:00 Light rain 38°F 67.6% 1.8mm 999.9km Northeast  0.9m/s
02:00 Moderate rain 37°F 70.9% 4.3mm 999.9km Northeast  0.6m/s
05:00 Light rain 36°F 73.3% 2.1mm 999.9km Northeast  0.7m/s